Content
SEND FEEDBACK

Daily
Averages
Monthly
Summary
United States of America

ANN ARBOR, MICHIGAN


Home > North America > United States > Michigan
Elevation: 759 feet     Latitude: 42 17N     Longitude: 083 43W

WEATHER
 
SELECT A DAY
Number of Records: 206,302;   Date Range: 1/1/95 - 9/30/14
 
SHARE

PRINT THIS DATA

[ ← Previous Day ]
WEATHER ALMANAC - JULY 23, 2013
[ Next Day → ]
[ °C ]   °F
Weather ElementAverageHighLow
Temperature69.7 °F86 °F (2:42 pm)59 °F (11:53 pm)
Dewpoint64.2 °F71.1 °F (11:53 am)50 °F (11:53 pm)
Humidity83.8 %100 % (2:09 am)58 % (1:53 pm)
Barometer29.75 in29.88 in (11:53 pm)29.68 in (1:53 pm)
Wind Speed6.7 mph17.3 mph (2:42 pm)
Wind Gust23 mph (1:53 pm)
Weather ElementAverage
Visibility6.3 mi
Wind DirectionSSE (165 °)

Weather ElementTotal
Precipitation0.07 in
Cooling Degree Days7.5 (Base 65)
Growing Degree Days22.5 (Base 50)
Averaged from 44 records on July 23, 2013
WEATHER CONDITIONS BREAKOUT
WIND DIRECTION BREAKOUT
WEATHER BY HOUR - JULY 23, 2013
[ °C ]   °F
Local TimeTemperatureDewpointHumidityBarometerVisibilityWind DirectionWind SpeedGust SpeedPrecipitationEventsConditions
1:33 AM64.4 °F62.6 °F94 %29.80 in1.8 miCalmClear
1:42 AM64.4 °F62.6 °F94 %29.80 in3.0 miCalmClear
1:53 AM63.0 °F62.1 °F97 %29.79 in2.5 miCalmClear
2:03 AM64.4 °F62.6 °F94 %29.79 in4.0 miCalmClear
2:09 AM62.6 °F62.6 °F100 %29.79 in1.0 miCalmClear
2:18 AM62.6 °F62.6 °F100 %29.79 in0.2 miCalmFogFog
2:30 AM62.6 °F62.6 °F100 %29.79 in2.0 miWSW (250°)4.6 mphClear
2:37 AM64.4 °F62.6 °F94 %29.78 in3.0 miWSW (250°)4.6 mphClear
2:50 AM64.4 °F62.6 °F94 %29.78 in1.8 miSW (230°)3.5 mphClear
2:51 AM64.0 °F63.0 °F96 %29.76 in1.8 miSW (230°)3.5 mphClear
3:10 AM62.6 °F62.6 °F100 %29.77 in3.0 miCalmClear
3:31 AM64.4 °F62.6 °F94 %29.75 in2.0 miCalmClear
3:48 AM64.4 °F62.6 °F94 %29.75 in3.0 miSW (230°)4.6 mphClear
3:53 AM64.9 °F64.0 °F97 %29.73 in4.0 miSW (220°)4.6 mphClear
4:53 AM66.0 °F64.0 °F93 %29.73 in4.0 miSW (230°)4.6 mph0.01 inClear
5:53 AM66.0 °F64.0 °F93 %29.72 in4.0 miSSW (210°)4.6 mphClear
6:36 AM66.2 °F64.4 °F94 %29.73 in2.5 miSSW (200°)4.6 mphClear
6:53 AM66.0 °F64.9 °F96 %29.73 in2.5 miSW (220°)3.5 mphClear
7:06 AM66.2 °F64.4 °F94 %29.74 in3.0 miCalmClear
7:53 AM68.0 °F66.0 °F93 %29.73 in4.0 miSW (230°)8.1 mph0.00 inMostly Cloudy
8:53 AM70.0 °F66.9 °F90 %29.73 in4.0 miCalm0.01 inRainLight Rain
9:53 AM72.0 °F69.1 °F91 %29.71 in6.0 miVariable4.6 mph0.00 inMostly Cloudy
10:06 AM71.6 °F69.8 °F94 %29.72 in6.0 miVariable3.5 mphMostly Cloudy
10:53 AM73.0 °F70.0 °F90 %29.72 in8.0 miSW (220°)5.8 mphScattered Clouds
11:53 AM79.0 °F71.1 °F77 %29.71 in10.0 miWSW (240°)8.1 mphClear
12:53 PM82.9 °F69.1 °F63 %29.70 in10.0 miWSW (240°)10.4 mphPartly Cloudy
1:53 PM84.0 °F68.0 °F58 %29.68 in10.0 miWSW (240°)16.1 mph23.0 mphMostly Cloudy
2:42 PM86.0 °F69.8 °F58 %29.69 in10.0 miWest (280°)17.3 mph21.9 mphThunderstormScattered Clouds
2:53 PM82.0 °F66.9 °F60 %29.68 in10.0 miWest (280°)13.8 mphThunderstormMostly Cloudy
3:09 PM75.2 °F66.2 °F73 %29.71 in10.0 miNNW (340°)10.4 mph21.9 mphThunderstormThunderstorm
3:53 PM75.0 °F68.0 °F79 %29.71 in10.0 miNorth (10°)11.5 mph20.7 mph0.05 inThunderstormMostly Cloudy
4:13 PM75.2 °F68.0 °F78 %29.73 in10.0 miNE (40°)9.2 mph19.6 mphOvercast
4:30 PM73.4 °F69.8 °F88 %29.73 in10.0 miNE (40°)10.4 mph21.9 mph0.00 inRain-ThunderstormLight Rain
4:49 PM73.4 °F66.2 °F78 %29.73 in10.0 miNNE (20°)12.7 mph21.9 mph0.00 inThunderstormOvercast
4:53 PM73.9 °F66.9 °F79 %29.72 in10.0 miNorth (10°)9.2 mph21.9 mph0.00 inThunderstormOvercast
5:02 PM75.2 °F66.2 °F73 %29.74 in10.0 miNorth (10°)10.4 mph19.6 mphThunderstormOvercast
5:16 PM75.2 °F66.2 °F73 %29.74 in10.0 miNorth (350°)8.1 mph17.3 mphOvercast
5:53 PM75.0 °F64.0 °F69 %29.73 in10.0 miNorth (350°)9.2 mphOvercast
6:53 PM73.9 °F63.0 °F68 %29.73 in10.0 miNNW (340°)12.7 mph18.4 mphMostly Cloudy
7:53 PM73.0 °F61.0 °F66 %29.74 in10.0 miNNW (340°)11.5 mphScattered Clouds
8:53 PM70.0 °F55.9 °F61 %29.76 in10.0 miNorth (350°)15.0 mphPartly Cloudy
9:53 PM64.9 °F54.0 °F68 %29.81 in10.0 miNorth (350°)16.1 mph23.0 mphClear
10:53 PM61.0 °F52.0 °F72 %29.86 in10.0 miNorth (360°)10.4 mph19.6 mphClear
11:53 PM59.0 °F50.0 °F72 %29.88 in10.0 miNorth (350°)8.1 mphClear
Hourly data recorded from KARB, located miles away from Ann Arbor, Michigan







STORIES FROM OUR PARTNERS